Location: Ellerstadt
(49.4644°N, 8.2615°E)
Time: 00:02:56
(UTC+00:00)

PSLV R/B - Pass Details

Date: 03 March 2021
Orbit: 566 x 599 km, 98.2° (Epoch: 13 April)

Event Time Altitude Azimuth Distance (km) Brightness Sun altitude
Rises 18:32:52 0° 11° (NNE) 2,812 7.4 -13.7°
Reaches altitude 10° 18:35:03 10° 9° (N) 1,902 6.5 -14.1°
Maximum altitude 18:39:08 65° 288° (WNW) 634 4.3 -14.7°
Drops below altitude 10° 18:43:09 10° 206° (SSW) 1,871 6.7 -15.4°
Sets 18:45:17 0° 204° (SSW) 2,760 7.6 -15.7°
